WA7SB-7 Weather Reports


Display with metric or nautical units.
time (UTC)temp
F
wind
direction
speed
MPH
gust
MPH
rain 1hr
in
rain 24hr
in
rain mn
in
humidity
%
barometer
mb
20220702201533 62 288 0.0 7.0 0.00 0.00 0.00 83 1015.8
20220702201034 61 121 0.0 7.0 0.00 0.00 0.00 84 1015.8
20220702200524 61 222 1.0 5.0 0.00 0.00 0.00 84 1015.8
20220702200037 61 258 1.0 7.0 0.00 0.00 0.00 83 1015.8
20220702195525 61 305 3.0 7.0 0.00 0.00 0.00 80 1015.7
20220702195036 62 42 1.0 4.0 0.00 0.00 0.00 81 1015.8
20220702194522 62 313 1.0 10.0 0.00 0.00 0.00 82 1015.6
20220702194036 62 255 2.0 6.0 0.00 0.00 0.00 81 1015.5
20220702193526 62 101 2.0 6.0 0.00 0.00 0.00 82 1015.6
20220702193040 61 249 1.0 4.0 0.00 0.00 0.00 84 1015.8
20220702192527 61 288 1.0 4.0 0.00 0.00 0.00 83 1016.0
20220702192039 60 218 1.0 4.0 0.00 0.00 0.00 83 1016.1
20220702191525 60 271 1.0 6.0 0.00 0.00 0.00 84 1016.0
20220702191037 60 305 2.0 7.0 0.00 0.00 0.00 85 1016.0
20220702190525 60 269 1.0 7.0 0.00 0.00 0.00 85 1016.1
20220702190032 59 94 1.0 4.0 0.00 0.00 0.00 86 1016.1
20220702185518 59 124 0.0 2.0 0.00 0.00 0.00 87 1016.3
20220702185031 59 350 1.0 4.0 0.00 0.00 0.00 86 1016.2
20220702184517 59 254 1.0 3.0 0.00 0.00 0.00 86 1016.3
20220702184029 59 246 0.0 8.0 0.00 0.00 0.00 86 1016.4
20220702183517 59 297 1.0 8.0 0.00 0.00 0.00 86 1016.3
20220702183025 59 247 2.0 6.0 0.00 0.00 0.00 84 1016.2
20220702182537 60 319 0.0 4.0 0.00 0.00 0.00 85 1016.3
20220702182022 59 266 1.0 5.0 0.00 0.00 0.00 85 1016.2
20220702181534 59 96 2.0 5.0 0.00 0.00 0.00 85 1016.2
20220702181018 59 202 0.0 9.0 0.00 0.00 0.00 86 1016.2
20220702180535 59 235 1.0 9.0 0.00 0.00 0.00 85 1016.3
20220702175527 59 304 1.0 4.0 0.00 0.00 0.00 86 1016.2
20220702175037 59 311 2.0 4.0 0.00 0.00 0.00 86 1016.1
20220702174525 58 314 1.0 5.0 0.00 0.00 0.00 87 1016.1
20220702174035 58 141 1.0 5.0 0.00 0.00 0.00 87 1016.1
20220702173522 58 283 1.0 4.0 0.00 0.00 0.00 88 1016.1
20220702173034 58 328 1.0 5.0 0.00 0.00 0.00 88 1016.1
20220702172521 58 87 2.0 5.0 0.00 0.00 0.00 88 1016.1
20220702172034 58 321 0.0 6.0 0.00 0.00 0.00 88 1016.1
20220702171521 58 303 2.0 6.0 0.00 0.00 0.00 88 1016.0
20220702171034 58 246 1.0 4.0 0.00 0.00 0.00 88 1016.0
20220702170525 58 302 1.0 4.0 0.00 0.00 0.00 88 1016.1
20220702170019 58 263 1.0 3.0 0.00 0.00 0.00 88 1016.3
20220702165531 57 231 1.0 3.0 0.00 0.00 0.00 88 1016.3
20220702165017 57 22 1.0 3.0 0.00 0.00 0.00 88 1016.3
20220702164530 57 188 0.0 5.0 0.00 0.00 0.00 88 1016.3
20220702164017 57 181 1.0 5.0 0.00 0.00 0.00 88 1016.3
20220702163529 57 284 1.0 10.0 0.00 0.00 0.00 88 1016.3
20220702163014 57 323 2.0 10.0 0.00 0.00 0.00 88 1016.3
20220702162527 57 60 1.0 4.0 0.00 0.00 0.00 88 1016.3
20220702162039 58 89 1.0 3.0 0.00 0.00 0.00 87 1016.3
20220702161527 58 94 1.0 4.0 0.00 0.00 0.00 88 1016.3
20220702161014 57 66 1.0 4.0 0.00 0.00 0.00 88 1016.2
20220702160528 57 127 1.0 3.0 0.00 0.00 0.00 88 1016.3
20220702160016 57 276 2.0 4.0 0.00 0.00 0.00 88 1016.2
20220702155529 57 258 1.0 4.0 0.00 0.00 0.00 88 1016.2
20220702155017 57 302 1.0 3.0 0.00 0.00 0.00 88 1016.3
20220702154527 57 214 0.0 3.0 0.00 0.00 0.00 89 1016.3
20220702154014 57 1 1.0 4.0 0.00 0.00 0.00 88 1016.4
20220702153528 57 75 0.0 2.0 0.00 0.00 0.00 88 1016.2
20220702153039 57 274 0.0 3.0 0.00 0.00 0.00 88 1016.3
20220702152526 57 278 1.0 3.0 0.00 0.00 0.00 88 1016.3
20220702152039 57 277 0.0 3.0 0.00 0.00 0.00 88 1016.3
20220702151526 57 155 1.0 2.0 0.00 0.00 0.00 88 1016.3
20220702151037 57 266 1.0 3.0 0.00 0.00 0.00 88 1016.3
20220702150524 57 347 0.0 3.0 0.00 0.00 0.00 89 1016.3
20220702150032 57 278 1.0 3.0 0.00 0.00 0.00 89 1016.2
20220702145517 57 142 0.0 2.0 0.00 0.00 0.00 90 1016.3
20220702145029 57 275 0.0 2.0 0.00 0.00 0.00 90 1016.3
20220702144515 57 79 0.0 2.0 0.00 0.00 0.00 90 1016.3
20220702144025 57 103 0.0 2.0 0.00 0.00 0.00 90 1016.3
20220702143537 57 103 0.0 2.0 0.00 0.00 0.00 90 1016.3
20220702143021 56 220 0.0 1.0 0.00 0.00 0.00 90 1016.4
20220702142532 56 240 0.0 2.0 0.00 0.00 0.00 90 1016.4
20220702142016 56 288 0.0 2.0 0.00 0.00 0.00 90 1016.3
20220702141528 56 261 0.0 1.0 0.00 0.00 0.00 91 1016.3
20220702141015 56 283 0.0 1.0 0.00 0.00 0.00 91 1016.4
20220702140526 56 331 0.0 1.0 0.00 0.00 0.00 91 1016.4
20220702140020 56 337 0.0 2.0 0.00 0.00 0.00 91 1016.4
20220702135531 56 14 1.0 2.0 0.00 0.00 0.00 91 1016.4
20220702135020 56 92 0.0 2.0 0.00 0.00 0.00 91 1016.6
20220702134534 56 103 0.0 2.0 0.00 0.00 0.00 92 1016.5
20220702134023 56 140 0.0 2.0 0.00 0.00 0.00 92 1016.5
20220702133535 56 276 0.0 3.0 0.00 0.00 0.00 92 1016.6
20220702133019 56 218 0.0 2.0 0.00 0.00 0.00 92 1016.6
20220702132533 56 257 1.0 5.0 0.00 0.00 0.00 92 1016.5
20220702132021 56 103 0.0 5.0 0.00 0.00 0.00 92 1016.6
20220702131534 56 169 0.0 5.0 0.00 0.00 0.00 92 1016.6
20220702131018 56 274 1.0 2.0 0.00 0.00 0.00 92 1016.6
20220702130528 56 273 0.0 2.0 0.00 0.00 0.00 92 1016.6
20220702130020 56 271 0.0 3.0 0.00 0.00 0.00 92 1016.7
20220702125534 56 285 1.0 2.0 0.00 0.00 0.00 92 1016.7
20220702125021 56 231 1.0 2.0 0.00 0.00 0.00 92 1016.6
20220702124534 56 298 0.0 2.0 0.00 0.00 0.00 92 1016.5
20220702124021 56 297 1.0 2.0 0.00 0.00 0.00 92 1016.5
20220702123536 56 274 1.0 2.0 0.00 0.00 0.00 92 1016.6
20220702123023 56 319 0.0 4.0 0.00 0.00 0.00 92 1016.6
20220702122537 56 3 0.0 4.0 0.00 0.00 0.00 92 1016.6
20220702122027 56 254 1.0 5.0 0.00 0.00 0.00 92 1016.6
20220702121516 56 239 1.0 5.0 0.00 0.00 0.00 92 1016.7
20220702121031 56 277 1.0 3.0 0.00 0.00 0.00 92 1016.6
20220702120521 56 115 0.0 3.0 0.00 0.00 0.00 92 1016.7
20220702120034 56 312 0.0 3.0 0.00 0.00 0.00 92 1016.7
20220702115522 56 297 1.0 3.0 0.00 0.00 0.00 92 1016.7
20220702115034 56 288 1.0 5.0 0.00 0.00 0.00 92 1016.6
20220702114520 56 296 1.0 5.0 0.00 0.00 0.00 92 1016.8
20220702114034 56 203 0.0 2.0 0.00 0.00 0.00 91 1016.8
20220702113523 56 303 0.0 2.0 0.00 0.00 0.00 92 1016.8
20220702113037 56 284 0.0 2.0 0.00 0.00 0.00 92 1016.8
20220702112525 56 170 0.0 2.0 0.00 0.00 0.00 92 1016.8
20220702112027 56 311 0.0 2.0 0.00 0.00 0.00 92 1016.7
20220702111517 56 319 1.0 2.0 0.00 0.00 0.00 92 1016.8
20220702111034 56 50 0.0 4.0 0.00 0.00 0.00 91 1016.6
20220702110523 56 285 0.0 6.0 0.00 0.00 0.00 91 1016.6
20220702110019 57 293 1.0 3.0 0.00 0.00 0.00 91 1016.7
20220702105534 57 317 0.0 5.0 0.00 0.00 0.00 91 1016.7
20220702105021 56 129 1.0 5.0 0.00 0.00 0.00 92 1016.8
20220702104536 56 158 0.0 2.0 0.00 0.00 0.00 91 1016.7
20220702104023 56 181 0.0 2.0 0.00 0.00 0.00 91 1016.7
20220702103540 57 280 0.0 3.0 0.00 0.00 0.00 91 1016.8
20220702103027 57 240 0.0 5.0 0.00 0.00 0.00 91 1016.7
20220702102515 57 37 2.0 6.0 0.00 0.00 0.00 91 1016.8
20220702102030 57 172 1.0 6.0 0.00 0.00 0.00 92 1016.8
20220702101516 57 279 0.0 1.0 0.00 0.00 0.00 92 1016.9
20220702101030 56 169 0.0 1.0 0.00 0.00 0.00 92 1016.8
20220702100518 56 106 0.0 1.0 0.00 0.00 0.00 92 1016.9
20220702100030 56 108 0.0 1.0 0.00 0.00 0.00 92 1016.9
20220702095514 56 108 0.0 1.0 0.00 0.00 0.00 92 1016.9
20220702095028 56 5 0.0 1.0 0.00 0.00 0.00 92 1017.0
20220702094517 56 277 0.0 1.0 0.00 0.00 0.00 92 1017.0
20220702094032 56 278 0.0 1.0 0.00 0.00 0.00 91 1017.1
20220702093519 57 278 0.0 3.0 0.00 0.00 0.00 91 1017.1
20220702093052 57 227 0.0 3.0 0.00 0.00 0.00 91 1017.1
20220702092526 57 312 1.0 2.0 0.00 0.00 0.00 91 1017.1
20220702092039 57 264 0.0 2.0 0.00 0.00 0.00 91 1017.1
20220702091521 57 290 1.0 2.0 0.00 0.00 0.00 91 1017.2
20220702091032 57 353 0.0 4.0 0.00 0.00 0.00 91 1017.2
20220702090521 57 347 2.0 4.0 0.00 0.00 0.00 90 1017.2
20220702090030 57 278 0.0 3.0 0.00 0.00 0.00 90 1017.2
20220702085515 57 264 0.0 1.0 0.00 0.00 0.00 90 1017.2
20220702085030 57 276 0.0 4.0 0.00 0.00 0.00 90 1017.3
20220702084519 57 287 1.0 6.0 0.00 0.00 0.00 90 1017.3
20220702084035 57 272 1.0 6.0 0.00 0.00 0.00 90 1017.3
20220702083525 57 77 1.0 5.0 0.00 0.00 0.00 91 1017.3
20220702083016 57 167 1.0 5.0 0.00 0.00 0.00 91 1017.3
20220702082531 57 289 2.0 3.0 0.00 0.00 0.00 90 1017.4
20220702082026 57 254 0.0 2.0 0.00 0.00 0.00 91 1017.4
20220702081515 57 120 1.0 2.0 0.00 0.00 0.00 91 1017.5
20220702081031 57 125 0.0 2.0 0.00 0.00 0.00 91 1017.5
20220702080520 57 358 0.0 2.0 0.00 0.00 0.00 91 1017.5
20220702080033 57 164 1.0 2.0 0.00 0.00 0.00 90 1017.5
20220702075521 57 109 0.0 4.0 0.00 0.00 0.00 90 1017.5
20220702075037 57 307 1.0 3.0 0.00 0.00 0.00 90 1017.5
20220702074523 57 101 0.0 1.0 0.00 0.00 0.00 90 1017.6
20220702074037 57 227 0.0 1.0 0.00 0.00 0.00 90 1017.5
20220702073526 57 147 0.0 2.0 0.00 0.00 0.00 90 1017.5
20220702073039 57 136 1.0 4.0 0.00 0.00 0.00 90 1017.5
20220702072527 57 162 1.0 4.0 0.00 0.00 0.00 90 1017.7
20220702072040 57 239 1.0 2.0 0.00 0.00 0.00 90 1017.6
20220702071530 57 172 0.0 4.0 0.00 0.00 0.00 90 1017.6
20220702071016 57 282 0.0 4.0 0.00 0.00 0.00 90 1017.7
20220702070531 57 288 0.0 4.0 0.00 0.00 0.00 90 1017.7
20220702070036 57 97 0.0 3.0 0.00 0.00 0.00 90 1017.8
20220702065518 57 179 0.0 5.0 0.00 0.00 0.00 90 1017.9
20220702065032 57 266 1.0 5.0 0.00 0.00 0.00 90 1017.9
20220702064518 57 255 0.0 3.0 0.00 0.00 0.00 90 1017.9
20220702064031 57 227 1.0 4.0 0.00 0.00 0.00 90 1017.9
20220702063522 57 266 1.0 4.0 0.00 0.00 0.00 91 1018.0
20220702063037 57 124 0.0 4.0 0.00 0.00 0.00 91 1018.0
20220702062525 57 321 0.0 4.0 0.00 0.00 0.00 91 1018.0
20220702062041 57 306 0.0 3.0 0.00 0.00 0.00 91 1018.0
20220702061528 57 282 0.0 3.0 0.00 0.00 0.00 91 1018.0
20220702061015 57 236 1.0 4.0 0.00 0.00 0.00 91 1018.1
20220702060527 57 276 1.0 3.0 0.00 0.00 0.00 91 1018.1
20220702060025 57 171 0.0 3.0 0.00 0.00 0.00 91 1018.1
20220702055540 57 259 1.0 3.0 0.00 0.00 0.00 91 1018.1
20220702055026 57 114 1.0 3.0 0.00 0.00 0.00 91 1018.1
20220702054541 57 340 0.0 3.0 0.00 0.00 0.00 91 1018.1
20220702054027 57 322 1.0 3.0 0.00 0.00 0.00 91 1018.2
20220702053516 57 45 1.0 4.0 0.00 0.00 0.00 91 1018.2
20220702053029 57 217 1.0 4.0 0.00 0.00 0.00 91 1018.3
20220702052517 57 75 0.0 2.0 0.00 0.00 0.00 91 1018.4
20220702052032 57 355 1.0 2.0 0.00 0.00 0.00 91 1018.3
20220702051517 57 238 0.0 1.0 0.00 0.00 0.00 91 1018.5
20220702051030 57 237 0.0 3.0 0.00 0.00 0.00 91 1018.4
20220702050519 57 301 1.0 3.0 0.00 0.00 0.00 91 1018.5
20220702050015 57 306 1.0 3.0 0.00 0.00 0.00 91 1018.4
20220702045528 57 105 0.0 3.0 0.00 0.00 0.00 91 1018.5
20220702045015 57 273 1.0 3.0 0.00 0.00 0.00 91 1018.5
20220702044529 57 239 1.0 3.0 0.00 0.00 0.00 91 1018.4
20220702044039 57 239 1.0 3.0 0.00 0.00 0.00 91 1018.4
20220702043526 57 245 0.0 4.0 0.00 0.00 0.00 91 1018.3
20220702043036 57 111 1.0 4.0 0.00 0.00 0.00 91 1018.2
20220702042526 57 252 0.0 4.0 0.00 0.00 0.00 91 1018.2
20220702042014 57 320 1.0 4.0 0.00 0.00 0.00 91 1018.2
20220702041529 57 149 0.0 4.0 0.00 0.00 0.00 91 1018.1
20220702041018 57 317 1.0 4.0 0.00 0.00 0.00 91 1018.2
20220702040530 57 255 0.0 2.0 0.00 0.00 0.00 91 1018.2
20220702040023 57 69 1.0 2.0 0.00 0.00 0.00 91 1018.1
20220702035534 57 229 0.0 3.0 0.00 0.00 0.00 90 1018.0
20220702035020 57 117 0.0 3.0 0.00 0.00 0.00 90 1018.0
20220702034534 58 181 0.0 2.0 0.00 0.00 0.00 90 1017.9
20220702034019 58 111 1.0 2.0 0.00 0.00 0.00 90 1018.0
20220702033533 58 72 0.0 3.0 0.00 0.00 0.00 90 1017.9
20220702033019 58 276 0.0 3.0 0.00 0.00 0.00 90 1018.0
20220702032531 58 317 1.0 3.0 0.00 0.00 0.00 90 1018.0
20220702032015 58 290 0.0 2.0 0.00 0.00 0.00 90 1018.0
20220702031527 58 323 1.0 3.0 0.00 0.00 0.00 90 1018.0
20220702031039 58 225 0.0 4.0 0.00 0.00 0.00 89 1018.1
20220702030526 58 321 1.0 4.0 0.00 0.00 0.00 90 1018.2
20220702030015 58 108 1.0 5.0 0.00 0.00 0.00 89 1018.2
20220702025531 58 209 1.0 5.0 0.00 0.00 0.00 89 1018.3
20220702025020 58 234 1.0 3.0 0.00 0.00 0.00 89 1018.3
20220702024533 58 84 1.0 2.0 0.00 0.00 0.00 90 1018.3
20220702024019 58 266 1.0 1.0 0.00 0.00 0.00 89 1018.3
20220702023533 58 84 0.0 6.0 0.00 0.00 0.00 89 1018.3
20220702023018 59 49 1.0 4.0 0.00 0.00 0.00 89 1018.3
20220702022528 59 181 0.0 3.0 0.00 0.00 0.00 89 1018.3
20220702022038 59 218 0.0 1.0 0.00 0.00 0.00 89 1018.3
20220702021525 59 268 0.0 2.0 0.00 0.00 0.00 88 1018.4
20220702021042 59 128 0.0 2.0 0.00 0.00 0.00 88 1018.3
20220702020529 59 181 0.0 2.0 0.00 0.00 0.00 88 1018.4
20220702020024 59 302 0.0 3.0 0.00 0.00 0.00 88 1018.4
20220702015539 59 232 0.0 5.0 0.00 0.00 0.00 88 1018.4
20220702015027 59 349 0.0 4.0 0.00 0.00 0.00 88 1018.5
20220702014541 60 262 1.0 3.0 0.00 0.00 0.00 88 1018.6
20220702014024 60 224 1.0 4.0 0.00 0.00 0.00 88 1018.5
20220702013538 60 229 1.0 8.0 0.00 0.00 0.00 88 1018.6
20220702013021 60 129 1.0 8.0 0.00 0.00 0.00 88 1018.6
20220702012534 60 264 0.0 4.0 0.00 0.00 0.00 88 1018.6
20220702012020 60 311 1.0 4.0 0.00 0.00 0.00 88 1018.7
20220702011533 60 120 1.0 5.0 0.00 0.00 0.00 88 1018.7
20220702011019 60 313 1.0 3.0 0.00 0.00 0.00 88 1018.8
20220702010533 60 224 1.0 4.0 0.00 0.00 0.00 88 1018.9
20220702010022 60 299 2.0 4.0 0.00 0.00 0.00 87 1019.0
20220702005536 61 297 0.0 3.0 0.00 0.00 0.00 87 1019.0
20220702005024 61 110 0.0 3.0 0.00 0.00 0.00 87 1019.1
20220702004533 61 103 0.0 3.0 0.00 0.00 0.00 86 1019.1
20220702004018 61 275 1.0 3.0 0.00 0.00 0.00 86 1019.3
20220702003531 61 285 0.0 3.0 0.00 0.00 0.00 86 1019.3
20220702003015 61 253 1.0 3.0 0.00 0.00 0.00 86 1019.3
20220702002527 61 286 1.0 6.0 0.00 0.00 0.00 86 1019.3
20220702002039 61 259 2.0 6.0 0.00 0.00 0.00 86 1019.2
20220702001525 61 210 1.0 5.0 0.00 0.00 0.00 85 1019.2
20220702001037 61 126 1.0 5.0 0.00 0.00 0.00 86 1019.3
20220702000523 61 311 1.0 5.0 0.00 0.00 0.00 86 1019.2
20220702000015 61 280 1.0 6.0 0.00 0.00 0.00 85 1019.3
20220701235527 62 274 1.0 3.0 0.00 0.00 0.00 85 1019.4
20220701235039 62 138 0.0 6.0 0.00 0.00 0.00 85 1019.5
20220701234524 62 296 2.0 9.0 0.00 0.00 0.00 84 1019.4
20220701234035 63 134 1.0 9.0 0.00 0.00 0.00 83 1019.5
20220701233522 63 61 1.0 5.0 0.00 0.00 0.00 84 1019.4
20220701233033 63 300 1.0 4.0 0.00 0.00 0.00 84 1019.5
20220701232518 63 209 1.0 6.0 0.00 0.00 0.00 84 1019.6
20220701232030 63 115 2.0 6.0 0.00 0.00 0.00 83 1019.5
20220701231518 64 203 1.0 5.0 0.00 0.00 0.00 83 1019.6
20220701231032 64 65 1.0 4.0 0.00 0.00 0.00 84 1019.6
20220701230520 64 281 1.0 5.0 0.00 0.00 0.00 83 1019.8
20220701230030 63 210 1.0 8.0 0.00 0.00 0.00 83 1019.8
20220701225516 64 122 2.0 8.0 0.00 0.00 0.00 82 1019.8
20220701225029 64 82 1.0 7.0 0.00 0.00 0.00 82 1019.8
20220701224539 64 37 1.0 6.0 0.00 0.00 0.00 82 1019.8
20220701224024 64 82 1.0 6.0 0.00 0.00 0.00 82 1019.9
20220701223539 65 53 1.0 4.0 0.00 0.00 0.00 83 1019.8
20220701223025 64 141 0.0 3.0 0.00 0.00 0.00 83 1019.8
20220701222535 64 74 1.0 7.0 0.00 0.00 0.00 83 1019.8
20220701222021 64 9 2.0 7.0 0.00 0.00 0.00 83 1019.8
20220701221535 64 257 1.0 7.0 0.00 0.00 0.00 83 1019.9
20220701221020 64 315 2.0 9.0 0.00 0.00 0.00 82 1019.9
20220701220535 64 106 2.0 6.0 0.00 0.00 0.00 83 1019.9
20220701220027 64 292 1.0 6.0 0.00 0.00 0.00 84 1019.9
20220701215541 64 257 2.0 9.0 0.00 0.00 0.00 83 1019.9
20220701215027 64 96 2.0 9.0 0.00 0.00 0.00 83 1020.0
20220701214541 64 285 1.0 8.0 0.00 0.00 0.00 84 1020.1
20220701214027 63 136 1.0 5.0 0.00 0.00 0.00 85 1020.0
20220701213541 63 92 2.0 5.0 0.00 0.00 0.00 84 1020.1
20220701213026 63 223 2.0 4.0 0.00 0.00 0.00 84 1020.2
20220701212537 63 174 1.0 4.0 0.00 0.00 0.00 86 1020.2
20220701212021 63 99 1.0 4.0 0.00 0.00 0.00 87 1020.2
20220701211522 63 215 1.0 5.0 0.00 0.00 0.00 87 1020.3
20220701211035 63 70 2.0 5.0 0.00 0.00 0.00 86 1020.2
20220701210521 63 27 1.0 5.0 0.00 0.00 0.00 87 1020.2
20220701210034 62 305 2.0 5.0 0.00 0.00 0.00 86 1020.2
20220701205523 63 311 1.0 4.0 0.00 0.00 0.00 86 1020.1
20220701205037 63 279 1.0 5.0 0.00 0.00 0.00 87 1020.2
20220701204527 62 124 1.0 5.0 0.00 0.00 0.00 88 1020.2
20220701204040 62 60 2.0 4.0 0.00 0.00 0.00 87 1020.3
20220701203529 62 266 1.0 6.0 0.00 0.00 0.00 88 1020.4
20220701203038 62 64 2.0 6.0 0.00 0.00 0.00 87 1020.4
20220701202522 62 114 1.0 9.0 0.00 0.00 0.00 88 1020.4
20220701202033 63 206 2.0 9.0 0.00 0.00 0.00 87 1020.5